When you browse on this site, cookies collect data to enhance your experience and personalize the content and advertising you see.
Visit our Privacy Policy to learn more. By continuing to use the site, you agree to this use of cookies and data.
  • în România
  • Lista ţărilor
  • Pe 7 zile
  • Temperatura apei
  • Meteo pe hartă
  • Widget-uri
  • user-avatar
    Intrare

    Meteo pe oră la Batina

    Astăzi, 5 Iunie, Vineri

    Timp Temperatura Precipitaţii Vânt Presiune Umiditate
    00:00 +19°C° 0 mm 2 m/s 666 mmHg 51%
    01:00 +18°C° 0 mm 2 m/s 666 mmHg 55%
    02:00 +18°C° 0 mm 3 m/s 666 mmHg 59%
    03:00 +17°C° 0 mm 3 m/s 666 mmHg 63%
    04:00 +17°C° 0 mm 4 m/s 666 mmHg 61%
    05:00 +17°C° 0 mm 4 m/s 666 mmHg 59%
    06:00 +17°C° 0 mm 5 m/s 666 mmHg 56%
    07:00 +17°C° 0 mm 7 m/s 667 mmHg 49%
    08:00 +18°C° 0 mm 8 m/s 667 mmHg 43%
    09:00 +19°C° 0 mm 10 m/s 668 mmHg 36%
    10:00 +21°C° 0 mm 9 m/s 669 mmHg 34%
    11:00 +22°C° 0 mm 9 m/s 669 mmHg 32%
    12:00 +23°C° 0 mm 8 m/s 669 mmHg 30%
    13:00 +23°C° 0 mm 7 m/s 670 mmHg 30%
    14:00 +23°C° 0 mm 7 m/s 670 mmHg 30%
    15:00 +24°C° 0 mm 6 m/s 670 mmHg 29%
    16:00 +23°C° 0 mm 5 m/s 670 mmHg 30%
    17:00 +22°C° 0 mm 4 m/s 670 mmHg 31%
    18:00 +22°C° 0 mm 3 m/s 670 mmHg 31%
    19:00 +21°C° 0 mm 3 m/s 670 mmHg 36%
    20:00 +19°C° 0 mm 2 m/s 670 mmHg 41%
    21:00 +19°C° 0 mm 1 m/s 670 mmHg 47%
    22:00 +19°C° 0 mm 1 m/s 670 mmHg 48%
    23:00 +18°C° 0 mm 1 m/s 670 mmHg 49%

    Mâine, 6 Iunie, Sâmbătă

    Timp Temperatura Precipitaţii Vânt Presiune Umiditate
    00:00 +16°C° 0 mm 0 m/s 670 mmHg 51%
    01:00 +15°C° 0 mm 0 m/s 669 mmHg 52%
    02:00 +15°C° 0 mm 0 m/s 669 mmHg 52%
    03:00 +14°C° 0 mm 0 m/s 669 mmHg 53%
    04:00 +15°C° 0 mm 0 m/s 670 mmHg 48%
    05:00 +17°C° 0 mm 0 m/s 670 mmHg 43%
    06:00 +18°C° 0 mm 0 m/s 671 mmHg 38%
    07:00 +21°C° 0 mm 1 m/s 671 mmHg 34%
    08:00 +23°C° 0 mm 1 m/s 672 mmHg 29%
    09:00 +24°C° 0 mm 2 m/s 672 mmHg 24%
    10:00 +25°C° 0 mm 3 m/s 672 mmHg 23%
    11:00 +26°C° 0 mm 4 m/s 672 mmHg 21%
    12:00 +28°C° 0 mm 6 m/s 672 mmHg 20%
    13:00 +28°C° 0 mm 6 m/s 672 mmHg 20%
    14:00 +28°C° 0 mm 6 m/s 671 mmHg 20%
    15:00 +28°C° 0 mm 6 m/s 671 mmHg 20%
    16:00 +28°C° 0 mm 5 m/s 671 mmHg 21%
    17:00 +27°C° 0 mm 4 m/s 670 mmHg 22%
    18:00 +27°C° 0 mm 3 m/s 670 mmHg 24%
    19:00 +26°C° 0 mm 2 m/s 670 mmHg 25%
    20:00 +25°C° 0 mm 2 m/s 670 mmHg 27%
    21:00 +24°C° 0 mm 1 m/s 670 mmHg 29%
    22:00 +24°C° 0 mm 1 m/s 669 mmHg 30%
    23:00 +24°C° 0 mm 1 m/s 669 mmHg 31%

    Poimâine, 7 Iunie, Duminică

    Timp Temperatura Precipitaţii Vânt Presiune Umiditate
    00:00 +23°C° 0 mm 2 m/s 669 mmHg 32%
    01:00 +23°C° 0 mm 2 m/s 668 mmHg 33%
    02:00 +23°C° 0 mm 2 m/s 668 mmHg 34%
    03:00 +23°C° 0 mm 2 m/s 668 mmHg 35%
    04:00 +24°C° 0.1 mm 2 m/s 668 mmHg 36%
    05:00 +24°C° 0.1 mm 2 m/s 668 mmHg 38%
    06:00 +24°C° 0.1 mm 2 m/s 668 mmHg 39%
    07:00 +25°C° 0.2 mm 3 m/s 668 mmHg 36%
    08:00 +27°C° 0.2 mm 4 m/s 669 mmHg 32%
    09:00 +28°C° 0.2 mm 4 m/s 669 mmHg 29%
    10:00 +29°C° 0 mm 5 m/s 669 mmHg 29%
    11:00 +29°C° 0 mm 5 m/s 669 mmHg 28%
    12:00 +30°C° 0 mm 5 m/s 669 mmHg 27%
    13:00 +30°C° 0 mm 6 m/s 669 mmHg 28%
    14:00 +30°C° 0 mm 6 m/s 669 mmHg 28%
    15:00 +30°C° 0 mm 6 m/s 668 mmHg 28%
    16:00 +28°C° 0 mm 6 m/s 668 mmHg 36%
    17:00 +26°C° 0 mm 6 m/s 668 mmHg 44%
    18:00 +23°C° 0 mm 5 m/s 668 mmHg 51%
    19:00 +22°C° 0 mm 5 m/s 668 mmHg 57%
    20:00 +20°C° 0 mm 5 m/s 668 mmHg 63%
    21:00 +19°C° 0 mm 4 m/s 668 mmHg 69%
    22:00 +18°C° 0 mm 4 m/s 668 mmHg 69%
    23:00 +18°C° 0 mm 3 m/s 668 mmHg 68%

    8 Iunie, Luni

    Timp Temperatura Precipitaţii Vânt Presiune Umiditate
    00:00 +18°C° 0 mm 3 m/s 667 mmHg 68%
    01:00 +18°C° 0 mm 2 m/s 667 mmHg 67%
    02:00 +17°C° 0 mm 2 m/s 667 mmHg 65%
    03:00 +17°C° 0 mm 2 m/s 667 mmHg 64%
    04:00 +19°C° 0 mm 1 m/s 667 mmHg 60%
    05:00 +20°C° 0 mm 1 m/s 667 mmHg 55%
    06:00 +21°C° 0 mm 1 m/s 668 mmHg 50%
    07:00 +22°C° 0 mm 1 m/s 668 mmHg 43%
    08:00 +24°C° 0 mm 1 m/s 669 mmHg 37%
    09:00 +25°C° 0 mm 2 m/s 669 mmHg 30%
    10:00 +26°C° 0 mm 2 m/s 669 mmHg 27%
    11:00 +28°C° 0 mm 3 m/s 669 mmHg 25%
    12:00 +29°C° 0 mm 3 m/s 669 mmHg 22%
    13:00 +29°C° 0 mm 4 m/s 669 mmHg 22%
    14:00 +29°C° 0 mm 5 m/s 669 mmHg 22%
    15:00 +29°C° 0 mm 5 m/s 669 mmHg 22%
    16:00 +27°C° 0 mm 5 m/s 669 mmHg 30%
    17:00 +26°C° 0 mm 6 m/s 669 mmHg 38%
    18:00 +23°C° 0 mm 6 m/s 669 mmHg 46%
    19:00 +21°C° 0.3 mm 5 m/s 669 mmHg 56%
    20:00 +20°C° 0.3 mm 4 m/s 669 mmHg 65%
    21:00 +18°C° 0.3 mm 3 m/s 669 mmHg 75%
    22:00 +18°C° 0 mm 3 m/s 669 mmHg 76%
    23:00 +17°C° 0 mm 3 m/s 669 mmHg 78%

    9 Iunie, Marţi

    Timp Temperatura Precipitaţii Vânt Presiune Umiditate
    00:00 +17°C° 0 mm 3 m/s 669 mmHg 79%
    01:00 +17°C° 0 mm 2 m/s 669 mmHg 77%
    02:00 +17°C° 0 mm 2 m/s 669 mmHg 75%
    03:00 +18°C° 0 mm 1 m/s 668 mmHg 73%
    04:00 +18°C° 0 mm 1 m/s 669 mmHg 70%
    05:00 +19°C° 0 mm 1 m/s 669 mmHg 67%
    06:00 +19°C° 0 mm 1 m/s 670 mmHg 65%
    07:00 +20°C° 0 mm 2 m/s 670 mmHg 59%
    08:00 +21°C° 0 mm 3 m/s 671 mmHg 53%
    09:00 +22°C° 0 mm 3 m/s 671 mmHg 47%
    10:00 +23°C° 0 mm 4 m/s 671 mmHg 43%
    11:00 +25°C° 0 mm 4 m/s 671 mmHg 38%
    12:00 +26°C° 0 mm 5 m/s 672 mmHg 34%
    13:00 +27°C° 0 mm 5 m/s 672 mmHg 31%
    14:00 +27°C° 0 mm 5 m/s 671 mmHg 28%
    15:00 +27°C° 0 mm 5 m/s 671 mmHg 25%
    16:00 +26°C° 0 mm 5 m/s 671 mmHg 29%
    17:00 +25°C° 0 mm 4 m/s 671 mmHg 33%
    18:00 +23°C° 0 mm 4 m/s 671 mmHg 37%
    19:00 +22°C° 0 mm 4 m/s 671 mmHg 48%
    20:00 +21°C° 0 mm 3 m/s 671 mmHg 58%
    21:00 +19°C° 0 mm 2 m/s 672 mmHg 69%
    22:00 +19°C° 0.1 mm 2 m/s 672 mmHg 69%
    23:00 +19°C° 0.1 mm 2 m/s 672 mmHg 70%

    10 Iunie, Miercuri

    Timp Temperatura Precipitaţii Vânt Presiune Umiditate
    00:00 +19°C° 0.1 mm 2 m/s 672 mmHg 71%
    01:00 +19°C° 0 mm 2 m/s 671 mmHg 68%
    02:00 +20°C° 0 mm 1 m/s 671 mmHg 66%
    03:00 +20°C° 0 mm 1 m/s 671 mmHg 63%
    04:00 +20°C° 0 mm 1 m/s 671 mmHg 63%
    05:00 +20°C° 0 mm 1 m/s 672 mmHg 63%
    06:00 +20°C° 0 mm 1 m/s 672 mmHg 62%
    07:00 +21°C° 0 mm 2 m/s 672 mmHg 55%
    08:00 +24°C° 0 mm 3 m/s 673 mmHg 48%
    09:00 +25°C° 0 mm 3 m/s 673 mmHg 41%
    10:00 +26°C° 0 mm 4 m/s 673 mmHg 39%
    11:00 +27°C° 0 mm 4 m/s 673 mmHg 36%
    12:00 +28°C° 0 mm 5 m/s 673 mmHg 34%
    13:00 +29°C° 0 mm 5 m/s 673 mmHg 32%
    14:00 +29°C° 0 mm 5 m/s 673 mmHg 31%
    15:00 +29°C° 0 mm 5 m/s 673 mmHg 29%
    16:00 +28°C° 0 mm 5 m/s 673 mmHg 32%
    17:00 +28°C° 0 mm 5 m/s 672 mmHg 34%
    18:00 +27°C° 0 mm 5 m/s 672 mmHg 37%
    19:00 +25°C° 0.2 mm 5 m/s 672 mmHg 45%
    20:00 +23°C° 0.2 mm 5 m/s 672 mmHg 53%
    21:00 +21°C° 0.2 mm 5 m/s 671 mmHg 62%
    22:00 +21°C° 0 mm 4 m/s 671 mmHg 63%
    23:00 +20°C° 0 mm 4 m/s 671 mmHg 64%
    Arată mai mult